マクノート彗星

508P/McNaught (2025)

English version
Home page
Updated on August 27, 2025

---------------------------------------------------------------------

・ プロフィール

符号 508P/2025 O1
検出日 2025年7月29日
検出光度 18.4等
検出者 A. Maury and F. Signoret (San Pedro de Atacama, Chile)

・ 軌道要素

Epoch 2025 May 5.0 TT = JDT 2460800.5                                           
T 2025 July 11.25681 TT                                 Pike                    
q   1.5393148            (2000.0)            P               Q                  
n   0.14583131     Peri.  338.88243     -0.32540100     +0.78586800             
a   3.5746665      Node   268.83032     -0.77457204     -0.54051056             
e   0.5693823      Incl.   31.73334     -0.54235813     +0.30043272             
P   6.76                                                                        
From 114 observations 2005 May 3-2025 Aug. 7, mean residual 1".0.               

・ 光度変化

        m1 = 15.7 + 5 logΔ + 15.0 log r

---------------------------------------------------------------------

軌道要素はM.P.E.C. 2025-P120に掲載されたものです。
光度グラフはComet for Windowsで作成したものです。

---------------------------------------------------------------------

Copyright(C) Seiichi Yoshida (comet@aerith.net). All rights reserved.